User: anonymous   Login
Location: Deuil
(48.9767°N, 2.3272°E)
Time: 17:12:30
(UTC+00:00)
Language:

DMSP 5D-3 F18 DEB - Orbit

View from above orbital plane
View from above orbital plane
View from above satellite
View from above satellite

Ground track
Ground track

The orbit data is extracted from the following two-line orbital elements,

1 35954U 09057D   22222.82805937  .00000815  00000-0  40938-3 0  9990
2 35954  98.5542 225.2196 0003416 233.8185 248.9005 14.19193229662274
Epoch (UTC): 10 August 2022 19:52:24
Eccentricity: 0.0003416
inclination: 98.5542°
perigee height: 825 km
apogee height: 830 km
right ascension of ascending node: 225.2196°
argument of perigee: 233.8185°
revolutions per day: 14.19193229
mean anomaly at epoch: 248.9005°
orbit number at epoch: 66227

The dashed part of the orbit path shows where the satellite is in the earth's shadow,  

DLR